Preview of NWS' New Version of Forecast
This preview is not operational and should not be used for support decisions.

Regional Weather Roundup (RWR)

Issued by National Weather Service (NWS)

                            
000
ASUS45 KCYS 220410
RWRWY 

WYOMING REGIONAL WEATHER ROUNDUP
NATIONAL WEATHER SERVICE CHEYENNE WY
900 PM MST THU FEB 21 2019

NOTE:  "FAIR" INDICATES FEW OR NO CLOUDS BELOW 12,000 FEET
WITH NO SIGNIFICANT WEATHER AND/OR OBSTRUCTIONS TO VISIBILITY.

WYZ001-220500-
...YELLOWSTONE NATIONAL PARK...
  
CITY           SKY/WX    TMP DP  RH WIND       PRES   REMARKS
LK YELLOWSTONE   N/A     -9 -15  75 NW3       29.77R                  
W YELLOWSTONE  NOT AVBL                                               

$$
WYZ002>013-054>058-071-098>099-220500-
...NORTHERN WYOMING...
  
CITY           SKY/WX    TMP DP  RH WIND       PRES   REMARKS
JACKSON        FLURRIES   8   0  69 N20       29.79R WCI -11          
CODY           PTCLDY     5   2  87 CALM      29.97R                  
GREYBULL       PTCLDY    10   4  76 W3        30.02R                  
WORLAND        MOCLDY    11   7  84 NE3       30.00R                  
SHERIDAN       CLOUDY    15  10  80 NW3       30.05R                  
BUFFALO        PTCLDY     7   3  84 SW5       29.98R WCI  -2          
GILLETTE       CLOUDY    13  10  88 NE3       30.04  FOG              
HULETT         CLOUDY    10   7  85 MISG      30.06S                  
NEWCASTLE      LGT SNOW  14  14 100 SE8       30.06R WCI   3          

$$
WYZ014>020-022>026-101>103-220500-
...CENTRAL WYOMING...
  
CITY           SKY/WX    TMP DP  RH WIND       PRES   REMARKS
BIG PINEY      CLOUDY     7  -1  70 N3        29.75R                  
PINEDALE       MOCLDY     0  -6  78 NW6       29.75R WCI -12          
DUBOIS         LGT SNOW   7   5  92 SE8       29.80R WCI  -6          
LANDER         CLOUDY    12   8  84 W6        29.90R FOG     WCI   3  
RIVERTON       CLOUDY    11   6  81 CALM      29.91R                  
CASPER         LGT SNOW  15  12  88 NE10      29.92R FOG     WCI   2  
DOUGLAS        LGT SNOW  16  12  84 E10       29.96R FOG     WCI   4  

$$
WYZ021-027>030-104>119-220500-
...SOUTHERN WYOMING...
  
CITY           SKY/WX    TMP DP  RH WIND       PRES   REMARKS
EVANSTON       CLOUDY    11   5  77 E23       29.66R HAZE    WCI  -9  
KEMMERER       LGT SNOW  10   5  79 NE15      29.71R WCI  -6          
FORT BRIDGER   LGT SNOW  12  11  96 E13       29.74R WCI  -3          
ROCK SPRINGS   LGT SNOW   9   5  84 NE28      29.73R FOG     WCI -13  
DIXON          CLOUDY    20  12  72 E12       29.69S WCI   8          
RAWLINS        CLOUDY    15  11  83 NE20G28   29.73R FOG     WCI  -2  
SARATOGA       CLOUDY    19  14  79 CALM      29.71R                  
LARAMIE        CLOUDY    14   8  77 E10       29.76R WCI   1          
CHEYENNE       LGT SNOW  16  15  96 E9        29.86R FOG     WCI   4  
TORRINGTON     CLOUDY    19  15  84 E10       30.00R WCI   7          
PINE BLUFFS    CLOUDY    18  18 100 E12       29.93R WCI   5          

$$